FENGYUN 1C DEB *

Satellite information

Favourite Embed

Satellite Type and Status

DEBRISIN ORBIT

Key statistics

Satellite FENGYUN 1C DEB * at a glance.

Uptime

9496

Days in orbit

Revolutions

≈ 14.2

Per day

Orbit

SSO

Sun Synchronous Orbit

Inclination

98.2

Latest

Satellite identification and parameters

Extended collection of information and parameters for FENGYUN 1C DEB *.

Object identification

Identified? True

Debris? True

Object name: FENGYUN 1C DEB *

International designator: 1999-025EZQ

Object number (NORAD): 46990

Object ID (CCSDS): 46990

Country: PEOPLES REPUBLIC OF CHINA (PRC)

Current information (Y/N): Y

RCS size: SMALL

Orbital parameters

Period: 101.662 minutes

Inclination: 98.2498 deg

SMA: 7215.513 km

Apoapsis: 1113.775 km

Periapsis: 560.982 km

RAAN: 347.4025 deg

Eccentricy: 0.0383059

Argument of periapsis: 338.2013 deg

Mean anomaly: 76.661 deg

Mean motion: 14.16452184 rev/day

Mean motion (dot): 0.00013026 rev/day2

B* drag term: 0.0031858 1/REarth

Two-line elements (TLE)

Creation date: May 8, 2025, 10:36 p.m.

Reference frame: TEME

Reference center: EARTH

Epoch: May 8, 2025, 7:55 p.m. UTC

TLE line 0: 0 FENGYUN 1C DEB *

TLE line 1: 1 46990U 99025EZQ 25128.83054692 .00013026 00000-0 31858-2 0 9997

TLE line 2: 2 46990 98.2498 347.4025 0383059 338.2013 76.6610 14.16452184227837

Live tracking on map

Real-time ground track for satellite FENGYUN 1C DEB *.

In-orbit conjunctions

A list of the most updated potential collisions computed for object FENGYUN 1C DEB *.

Target Orbit TCA Probability of collision Miss distance Type
COSMOS 1275 DEB LEO 2024-11-15 07:33:55 0.0001092326 154.0 (m) DEBRIS
SL-16 DEB LEO 2024-11-13 18:50:42 0.0001247197 655.0 (m) DEBRIS
CZ-6A DEB LEO 2024-11-01 04:32:20 0.0001080535 224.0 (m) DEBRIS

Associated space launch

Chinese polar orbiting meteorological satellite

FENGYUN 1C DEB * was lifted into orbit during the mission ‘Long March 4B | Feng Yun 1C’, on board a Long March 4B space rocket.

The launch took place on May 10, 1999, 1:33 a.m. from Launch Complex 7.

For more information about the launch, click the button.

Launch to space Long March 4B | Feng Yun 1C
Long March 4B | Feng Yun 1C

Agency: N/A

Status: Launch Successful

Launch date: May 10, 1999, 1:33 a.m. UTC

Rocket: Long March 4B

Launch pad: Launch Complex 7

Location: Taiyuan Satellite Launch Center, People's Republic of China

...

Latest news about this satellite

There are no fresh news available about this satellite. Check back as we update our databases every day.


Newsletter sign-up

Weekly statistics, charts and insights to help you stay on top of the space industry.